Weather History for KABE - June, 2013

Change the Weather History Date:

Thursday, June 20, 2013

  Actual Average Record
Temperature  
Mean Temperature 67 °F 70 °F  
Max Temperature 81 °F 81 °F 100 °F (1923)
Min Temperature 52 °F 60 °F 44 °F (1926)
Degree Days  
Heating Degree Days 0 1  
Month to date heating degree days 9 32  
Since 1 June heating degree days 9 32  
Since 1 July heating degree days 5404 5800  
Cooling Degree Days 2 6  
Month to date cooling degree days 85 87  
Year to date cooling degree days 157 132  
Since 1 June cooling degree days 85 87  
Growing Degree Days 16 (Base 50)    
Moisture  
Dew Point 54 °F    
Average Humidity 66    
Maximum Humidity 89    
Minimum Humidity 43    
Precipitation  
Precipitation 0.00 in 0.14 in 2.80 in (1927)
Month to date precipitation 6.47 2.86  
Year to date precipitation 20.02 19.68  
Snow  
Snow 0.00 in 0.00 in 0.00 in (2002)
Month to date snowfall 0.0 0.0  
Since 1 June snowfall 0.0 0.0  
Since 1 July snowfall 21.4 32.9  
Snow Depth 0.00 in    
Sea Level Pressure  
Sea Level Pressure 30.24 in    
Wind  
Wind Speed 5 mph (SW)    
Max Wind Speed 14 mph    
Max Gust Speed 17 mph    
Visibility 10 miles    
Events      
T = Trace of Precipitation, MM = Missing Value Source: NWS Daily Summary

Daily Weather History Graph

Daily Weather History Graph

Search for Another Location

Airport or City:

Trip Planner

Search our weather history database for the weather conditions in past years. The results will help you decide how hot, cold, wet, or windy it might be!

Date:

Astronomy

Jun. 20, 2013 Rise Set
Actual Time 5:30 AM EDT 8:36 PM EDT
Civil Twilight 4:57 AM EDT 9:09 PM EDT
Nautical Twilight 4:14 AM EDT 9:52 PM EDT
Astronomical Twilight 3:24 AM EDT 10:42 PM EDT
Moon 5:35 PM EDT (6/20) 2:56 AM EDT (6/20)
Length of Visible Light 16h 12m
Length of Day
15h 05m
Waxing Gibbous, 89% of the Moon is Illuminated
Jun 20
Waxing Gibbous
Jun 23
Full
Jun 30
Last Quarter
Jul 8
New
Jul 15
First Quarter

Hourly Weather History & Observations

Time (EDT) Temp. Dew Point Humidity Pressure Visibility Wind Dir Wind Speed Gust Speed Precip Events Conditions
12:51 AM 61.0 °F 50.0 °F 67% 30.18 in 10.0 mi Calm Calm - N/A   Clear
1:51 AM 60.1 °F 48.9 °F 67% 30.18 in 10.0 mi Calm Calm - N/A   Clear
2:51 AM 55.0 °F 51.1 °F 86% 30.20 in 10.0 mi NNW 3.5 mph - N/A   Clear
3:51 AM 55.9 °F 50.0 °F 80% 30.20 in 10.0 mi Calm Calm - N/A   Clear
4:51 AM 52.0 °F 48.9 °F 89% 30.21 in 10.0 mi Calm Calm - N/A   Clear
5:51 AM 53.1 °F 50.0 °F 89% 30.23 in 10.0 mi Calm Calm - N/A   Clear
6:51 AM 55.9 °F 51.1 °F 84% 30.25 in 10.0 mi Calm Calm - N/A   Clear
7:51 AM 62.1 °F 55.9 °F 80% 30.26 in 10.0 mi Calm Calm - N/A   Clear
8:51 AM 66.0 °F 55.9 °F 70% 30.27 in 10.0 mi Calm Calm - N/A   Clear
9:51 AM 69.1 °F 55.9 °F 63% 30.27 in 10.0 mi Calm Calm - N/A   Clear
10:51 AM 72.0 °F 57.9 °F 61% 30.27 in 10.0 mi SSW 5.8 mph - N/A   Clear
11:51 AM 73.0 °F 57.9 °F 59% 30.27 in 10.0 mi West 4.6 mph - N/A   Clear
12:51 PM 77.0 °F 54.0 °F 45% 30.26 in 10.0 mi West 8.1 mph - N/A   Scattered Clouds
1:51 PM 79.0 °F 55.0 °F 44% 30.24 in 10.0 mi Variable 3.5 mph - N/A   Scattered Clouds
2:51 PM 79.0 °F 55.0 °F 44% 30.23 in 10.0 mi Variable 4.6 mph 16.1 mph N/A   Scattered Clouds
3:51 PM 79.0 °F 57.0 °F 47% 30.23 in 10.0 mi SW 9.2 mph 17.3 mph N/A   Partly Cloudy
4:51 PM 79.0 °F 57.0 °F 47% 30.22 in 10.0 mi SSW 5.8 mph - N/A   Clear
5:51 PM 79.0 °F 55.0 °F 44% 30.22 in 10.0 mi South 6.9 mph - N/A   Partly Cloudy
6:51 PM 78.1 °F 55.0 °F 45% 30.22 in 10.0 mi SW 9.2 mph - N/A   Clear
7:51 PM 75.9 °F 55.9 °F 50% 30.23 in 10.0 mi SW 10.4 mph - N/A   Clear
8:51 PM 73.0 °F 55.9 °F 55% 30.22 in 10.0 mi SSW 6.9 mph - N/A   Clear
9:51 PM 71.1 °F 57.0 °F 61% 30.24 in 10.0 mi SSW 8.1 mph - N/A   Clear
10:51 PM 69.1 °F 54.0 °F 58% 30.25 in 10.0 mi SW 9.2 mph - N/A   Clear
11:51 PM 66.0 °F 52.0 °F 60% 30.27 in 10.0 mi SW 9.2 mph - N/A   Clear